Regional Weather Roundup
Issued by NWS

Home | Current Version | Previous Version | Text Only | Print | Product List | Glossary Off
Versions: 1 2 3 4 5 6 7 8 9 10 11 12 13 14 15 16 17 18 19 20 21 22 23 24 25 26 27 28 29 30 31 32 33 34 35 36 37 38 39 40 41 42 43 44 45 46 47 48 49 50

226
ASUS43 KOAX 241310
RWRNE

WEATHER ROUNDUP FOR NEBRASKA
NATIONAL WEATHER SERVICE OMAHA NE
800 AM CDT SAT JUN 24 2017

NOTES: SATELLITE DATA IS BEING USED TO AUGMENT CLOUD COVER ABOVE
       12000 FEET.
       "FAIR" INDICATES FEW OR NO CLOUDS BELOW 12,000 FEET WITH NO
       SIGNIFICANT WEATHER AND/OR OBSTRUCTIONS TO VISIBILITY.

  * THESE STATIONS DO NOT REPORT WEATHER SUCH AS RAIN...SNOW OR FOG.

NEZ001>004-019>022-054>056-241400-
NEBRASKA PANHANDLE

CITY           SKY/WX    TMP DP  RH WIND       PRES   REMARKS
SCOTTSBLUFF    CLOUDY    57  41  55 CALM      30.30S
ALLIANCE       CLOUDY    52  44  74 W5        30.28S
CHADRON        CLOUDY    51  41  68 CALM      30.28R
GORDON         FAIR      50  38  63 W3        30.27S
KIMBALL        CLOUDY    53  43  69 S5        30.33S
SIDNEY         CLOUDY    55  39  54 E3        30.33R
$$

NEZ057>060-069>072-079>082-241400-
SOUTHWEST NEBRASKA

CITY           SKY/WX    TMP DP  RH WIND       PRES   REMARKS
NORTH PLATTE   CLOUDY    55  46  71 W3        30.27R
IMPERIAL       CLOUDY    56  46  69 CALM      30.29R
LEXINGTON      CLOUDY    54  47  77 W6        30.26R
MCCOOK         CLOUDY    52  48  86 CALM      30.26S
OGALLALA       CLOUDY    57  48  71 CALM      30.29R
$$

NEZ005>010-023>029-035>040-094-241400-
NORTH CENTRAL NEBRASKA

CITY           SKY/WX    TMP DP  RH WIND       PRES   REMARKS
VALENTINE      SUNNY     52  33  48 W6        30.24R
AINSWORTH      SUNNY     55  42  61 W7        30.23R
BROKEN BOW     CLOUDY    56  42  59 SW3       30.24S
O`NEILL        SUNNY     54  41  62 W6        30.21R
ORD            PTSUNNY   53  41  63 N3        30.22S
THEDFORD       CLOUDY    55  39  54 W6        30.26S
$$

NEZ041-046>049-061>064-073>077-083>087-241400-
SOUTH CENTRAL NEBRASKA

CITY           SKY/WX    TMP DP  RH WIND       PRES   REMARKS
GRAND ISLAND   MOSUNNY   59  46  62 W6        30.23S
AURORA         SUNNY     57  48  73 CALM      30.22S
HASTINGS       SUNNY     56  45  66 W3        30.25R
HEBRON         SUNNY     58  50  74 CALM      30.23R
HOLDREGE       CLOUDY    55  47  73 CALM      30.25R
KEARNEY *      CLOUDY    55  39  54 W5        30.25R
YORK           SUNNY     55  46  71 CALM      30.22S
$$

NEZ011>018-030>034-042>045-241400-
NORTHEAST NEBRASKA

CITY           SKY/WX    TMP DP  RH WIND       PRES   REMARKS
NORFOLK        SUNNY     57  41  55 W7        30.17F
ALBION         SUNNY     51  42  70 CALM      30.21S
BLAIR          MOSUNNY   57  45  64 W5        30.17S
FREMONT        SUNNY     58  44  60 W7        30.18S
TEKAMAH        MOSUNNY   58  43  57 W5        30.16S
WAYNE          SUNNY     59  42  53 W7        30.16F
$$

NEZ050>053-065>068-078-088>093-241400-
SOUTHEAST NEBRASKA

CITY           SKY/WX    TMP DP  RH WIND       PRES   REMARKS
LINCOLN        SUNNY     57  48  72 N7        30.20S
OMAHA EPPLEY   MOSUNNY   60  46  59 CALM      30.17R
BEATRICE       SUNNY     57  49  75 W5        30.21R
FALLS CITY     SUNNY     59  51  75 NW7       30.18R
NEBRASKA CITY  SUNNY     60  49  66 NW5       30.18R
PLATTSMOUTH    SUNNY     58  49  70 NW6       30.18S
$$

NEZ044-045-051>053-067-241400-
OMAHA AREA

CITY           SKY/WX    TMP DP  RH WIND       PRES   REMARKS
OMAHA EPPLEY   MOSUNNY   60  46  59 CALM      30.17R
BLAIR          MOSUNNY   57  45  64 W5        30.17S
FREMONT        SUNNY     58  44  60 W7        30.18S
MILLARD        MOSUNNY   61  48  63 CALM      30.18S
OFFUTT AFB     SUNNY     58  47  67 NW9       30.17R
PLATTSMOUTH    SUNNY     58  49  70 NW6       30.18S
WAHOO          FAIR      60  44  54 W3        30.19S
$$




USA.gov is the U.S. government's official web portal to all federal, state and local government web resources and services.